Погода в Нефтчале

Погода в Нефтчале : погода сейчас, прогноз погоды и архив. Всё, что Вы хотите узнать о погоде в Нефтчале!

Поиск расширенной информации на нашем сайте:

Другие новости

Новости СМИ2

Главная страница сайта

Новости сайта

03.07.2017

Напоминаем, что на нашем специализированном сайте Метеоцентр.Азия вы можете получить высокодетализированные автоматические прогнозы погоды по пунктам России, СНГ и мира в авиационном формате (включающие направление и скорость ветра, видимость, явления погоды, количество и форму облачности, нижнюю и верхнюю границу облачности).

Рекомендуем: Abc автоматика ворота сервис.

Погода в Нефтчале - сегодня

Время (UTC), дата Ветер
(°,м/с) 
Видим.   Явления Облачность Т
(°С)
Тd
(°С)
f(%) Тe
(°С)
Pmin
(гПа)
dP
(гПа)
Po
(мм)
O2
(г/м3)
Тmin Tmax R s Состояние
почвы
03 17.02.18 тихо ()   10 км    10/10 600 м 
[Sc]
+7.4 +6.5 94 +7  1026.8  -0.3  772  302           
06 17.02.18 тихо ()   20000 м    10/10 600 м 
[Sc]
+9.3 +7.6 89 +9  1026.5  -0.3  772  300  +6.8         
09 17.02.18 140 (ЮВ) 20000 м    10/0 средняя 
[Ac As]
+10.1 +7 81 +10  1024.3  -2.2  770  298           
12 17.02.18 180 (Ю) 20000 м    10/0 средняя 
[Ac As]
+10 +6.4 78 +11  1022.7  -1.6  769  298           
15 17.02.18 180 (Ю) 10 км    10/0 средняя 
[Ac As]
+8.8 +6.4 85 +10  1022.3  -0.4  769  299           
21 17.02.18 тихо ()   10 км    10/10 600 м 
[Sc]
+8.2 +6.7 90 +8  1020.2  -1.9  767  299           
00 18.02.18 тихо ()   10 км    10/10 600 м 
[Sc]
+8.1 +6.4 89 +8  1018.6  -1.6  766  299           
03 18.02.18 тихо ()   10 км    10/10 600 м 
[Sc]
+7.8 +6.5 91 +8  1017.8  -0.8  765  299           
06 18.02.18 тихо ()   10 км  слаб. дождь  10/10 600 м 
[Frnb|Ns]
+7.6 +7 96 +8  1017.5  -0.3  765  299  +7.5         
09 18.02.18 тихо ()   10 км  слаб. дождь  10/10 600 м 
[Frnb|Ns]
+7.4 +6.8 96 +7  1015  -2.5  763  298           
12 18.02.18 050 (СВ) 10 км  слаб. дождь  10/10 600 м 
[Frnb|Ns]
+7.1 +6.7 97 +6  1014  -1  763  298           
18 18.02.18 050 (СВ) 10 км  слаб. дождь  10/10 600 м 
[Frnb|Ns]
+5.7 +4.5 92 +3  1016.4  1.5  765  301    +7.9  11     
21 18.02.18 050 (СВ) 16  10 км  слаб. дождь  10/10 600 м 
[Frnb|Ns]
+4.8 +3.1 89 1017.3  0.9  765  303           
00 19.02.18 360 (С) 10 км  слаб. дождь  10/10 600 м 
[Frnb|Ns]
+4 +2.5 90 +1  1014.7  0.4  766  304           
03 19.02.18 360 (С) 10 км  {дождь}  10/10 600 м 
[Frnb|Ns]
+4 +2.5 90 +4  1018.2  0.5  766  304           
06 19.02.18 тихо ()   20000 м  {дождь}  10/10 600 м 
[Sc]
+5.2 +2.7 84 +5  1019.6  1.4  767  303  +3.8       
09 19.02.18 тихо ()   20000 м    10/10 600 м 
[Sc]
+7 +3.4 78 +7  1019.4  -0.3  767  301           
12 19.02.18 тихо ()   20000 м    10/10 600 м 
[Sc]
+6.9 +4.4 84 +7  1019.2  -0.2  767  301           
15 19.02.18 тихо ()   10 км    8/8 600 м 
[Sc]
+5.9 +4 88 +6  1020.1  767  302           
21 19.02.18 тихо ()   10 км    9/0 средняя 
[Ac und]
+5.2 +4 92 +5  1020.7  768  303           
00 20.02.18 тихо ()   10 км    8/0 средняя 
[Ac trans]
+6 +4.6 91 +6  1020.8  0.1  768  302           
03 20.02.18 тихо ()   10 км    8/0 средняя 
[Ac trans]
+5.6 +4.7 94 +6  1021  0.2  768  303           
06 20.02.18 тихо ()   20000 м    8/8 600 м 
[Cu med, cong]
+9.5 +5.8 78 +10  1021.8  0.8  769  298  +5         
09 20.02.18 180 (Ю) 20000 м    8/8 600 м 
[Cu med, cong]
+9.8 +6.4 79 +10  1020.6  -1.2  768  298           
12 20.02.18 180 (Ю) 20000 м    10/10 600 м 
[Sc]
+9.6 +5.9 78 +11  1019.4  -1.2  767  298           
Время (UTC), дата Ветер
(°,м/с) 
Видим.   Явления Облачность Т
(°С)
Тd
(°С)
f(%) Тe
(°С)
Pmin
(гПа)
dP
(гПа)
Po
(мм)
O2
(г/м3)
Тmin Tmax R s Состояние
почвы

Для получения пояснительной информации подведите курсор к названию столбца.

ПОГОДА в Нефтчале - архив

Всё, что Вы хотите узнать о погоде в Нефтчале - удобно и подробно!

Выберите нужную дату (начиная с 1 января 2015* года) и нажмите кнопку "Найти".
Будут отображены архивные сводки погоды по пункту Нефтчала, начиная с указанной даты.


Отображать данные в формате CSV (для использования в таблицах Excel)


Внимание! Наш архив погоды предназначен исключительно для личного некоммерческого использования в познавательных целях. Если Вам необходимы официальные справки о состоянии погоды (для производственных, юридических, коммерческих и т.п. целей), обращайтесь в органы Росгидромета.

*Примечание: данная дата относится к архиву по метеостанциям СССР (Россия, СНГ, Балтия).
Архив по метеостанциям Зарубежной Европы и Азии (кроме Китая) хранится 10 дней, по другим регионам земного шара (Китай, Африка, Америка, Австралия, Океания) - 1 день.

Нефтчала - район местоположения метеостанции


Название, широта, долгота, высота метеостанции:
Нефтчала 39.4°ш. 49.2°д. -24 м над ур. моря [Азербайджан]

Дополнительная информация

В oтличие oт бoльшинства пoгoдных сайтoв мы публикуем пoдрoбную метеoинфoрмацию в детальнoм прoфессиoнальнoм фoрмате.

Характеристики температуры и влажнoсти вoздуха измеряются на высoте 2 м в тени вдали oт зданий и деревьев.
Скoрoсть ветра измеряется на высoте 10 м (на урoвне рoста челoвека скoрoсть ветра ниже в 1.5-2 раза). Если метеoстанция нахoдится в гoрoде или в лесу, тo скoрoсть ветра занижена на 2-4 м/с пo сравнению с oткрытым местoм. Скoрoсть ветра над акватoриями крупных рек и oзёр, а также на вершинах хoлмoв на 2-5 м/с выше, чем в oбычных услoвиях.
Атмoсфернoе давление в разных тoчках местнoсти мoжет значительнo oтличаться oт давления на метеoстанции, в зависимoсти oт услoвий рельефа (при пoдъёме на 10 м давление пoнижается примернo на 1 мм рт.ст.).